This is the latest recevied weather packets stored in our database for station/object DB0HRC-6. If no packets are shown the sender has not sent any weather packets the latest 1 day(s).
| Time | Temp. | Humidity | Pressure | Rain* | Wind** | Luminosity | Snow |
|---|---|---|---|---|---|---|---|
| 1777996813 | 17.78° C | 66% | 1002.6 hPa | 0 mm | 0.89 m/s, 22° | - | - |
| 1777995913 | 17.78° C | 65% | 1002.8 hPa | 0 mm | 0.45 m/s, 337° | - | - |
| 1777995013 | 17.78° C | 62% | 1003.1 hPa | 0 mm | 0.45 m/s, 0° | - | - |
| 1777994113 | 17.78° C | 64% | 1003.1 hPa | 0 mm | 0.45 m/s, 0° | - | - |
| 1777993213 | 17.78° C | 63% | 1003.5 hPa | 0 mm | 0 m/s | - | - |
| 1777992313 | 17.78° C | 64% | 1003.4 hPa | 0 mm | 0.45 m/s, 337° | - | - |
| 1777991413 | 17.78° C | 65% | 1003.5 hPa | 0 mm | 0.45 m/s, 0° | - | - |
| 1777990514 | 18.33° C | 63% | 1003.6 hPa | 0 mm | 0.89 m/s, 337° | - | - |
| 1777989613 | 18.33° C | 65% | 1003.8 hPa | 0 mm | 0.45 m/s, 0° | - | - |
| 1777988712 | 18.33° C | 65% | 1004 hPa | 0 mm | 0.45 m/s, 0° | - | - |
| 1777987813 | 17.78° C | 68% | 1003.9 hPa | 0 mm | 0.45 m/s, 0° | - | - |
| 1777986913 | 18.33° C | 67% | 1004.2 hPa | 0 mm | 0.45 m/s, 337° | - | - |
| 1777986013 | 17.78° C | 68% | 1004.4 hPa | 0 mm | 0.45 m/s, 337° | - | - |
| 1777985113 | 17.78° C | 69% | 1004.3 hPa | 0 mm | 0 m/s | - | - |
| 1777984212 | 17.22° C | 70% | 1004.7 hPa | 0 mm | 0.89 m/s, 0° | - | - |
| 1777983313 | 17.78° C | 70% | 1004.6 hPa | 0 mm | 0 m/s | - | - |
| 1777982412 | 17.22° C | 71% | 1004.8 hPa | 0 mm | 0.45 m/s, 337° | - | - |
| 1777981513 | 17.22° C | 72% | 1005 hPa | 0 mm | 0.45 m/s, 337° | - | - |
| 1777980613 | 16.67° C | 74% | 1004.8 hPa | 0 mm | 0.45 m/s, 337° | - | - |
| 1777979714 | 16.11° C | 76% | 1005 hPa | 0 mm | 0 m/s | - | - |
| 1777978813 | 16.11° C | 75% | 1005.3 hPa | 0 mm | 0.45 m/s, 0° | - | - |
| 1777977913 | 16.11° C | 76% | 1005.2 hPa | 0 mm | 0 m/s | - | - |
| 1777977013 | 15.56° C | 77% | 1005.4 hPa | 0 mm | 0.45 m/s, 337° | - | - |
| 1777976113 | 15.56° C | 78% | 1005.5 hPa | 0 mm | 0 m/s | - | - |
| 1777975212 | 15.56° C | 77% | 1005.6 hPa | 0 mm | 0 m/s | - | - |
* Rain latest hour (hover to see other rain measurements)
** Current wind speed in m/s (hover to see current wind gust speed)